Theta_e
332 331 332 332 331 331 332 333 333 332 331 331 331 331 331 330 330 331 331 330 330 329 329 328 326 326 323 323 324 321 323 321 307 312 321 313 304 304 304 302 302 300 299 299 300 299 300 300 299 300 300 301 302 303 305 308 309 309 309 308 308 308 307 307 307 307 307 307 307 307 307 307 307 307
332 332 331 331 331 332 333 333 332 331 330 330 331 331 331 331 330 331 331 330 330 328 328 327 326 326 323 323 323 321 323 320 309 314 325 319 309 303 303 302 300 300 300 299 300 300 300 301 301 301 301 303 304 305 307 310 309 309 309 308 308 308 308 308 307 307 307 307 307 307 307 307 307 307
332 331 331 331 332 333 332 331 330 330 330 330 331 330 331 332 331 331 331 331 329 327 327 327 325 326 324 323 322 320 322 317 309 313 323 323 316 305 301 302 300 299 300 300 300 301 301 302 302 303 303 304 306 308 309 309 309 309 309 308 308 308 308 308 308 308 308 308 308 308 308 308 307 307
331 331 331 332 333 332 332 331 330 330 331 331 331 330 331 331 330 329 330 330 329 327 328 327 325 326 324 323 322 318 320 317 310 313 320 323 321 311 302 300 300 300 300 300 301 301 302 303 303 304 305 306 308 309 309 310 309 309 309 309 309 308 309 308 308 308 308 308 308 308 308 308 307 307
332 331 331 332 333 331 332 332 331 331 331 332 332 332 332 331 329 329 329 330 329 328 327 326 326 326 323 323 321 316 318 316 311 315 320 321 321 316 306 301 299 300 301 301 302 303 303 304 305 305 306 308 309 310 310 310 310 309 309 309 309 309 309 309 309 309 308 308 308 308 308 308 307 307
332 332 333 333 331 331 332 332 331 332 332 332 333 332 332 331 330 329 329 330 330 328 327 326 325 325 324 323 320 317 319 316 310 315 321 320 319 316 312 306 301 299 302 303 303 304 305 305 305 306 307 308 310 310 310 310 310 310 310 309 309 309 309 309 309 309 308 308 308 308 308 308 307 307
332 333 333 333 331 331 332 331 331 332 332 331 331 331 330 331 331 330 328 328 329 329 329 327 325 325 323 323 321 318 319 316 311 312 317 319 316 313 313 313 307 301 301 303 304 305 305 306 306 307 307 308 309 310 310 310 310 310 310 309 309 309 309 309 308 308 308 308 308 308 307 307 306 306
332 332 331 331 331 331 332 331 332 332 332 331 331 331 330 330 331 330 327 327 328 328 328 327 325 326 324 322 321 318 319 317 312 311 314 316 315 311 311 314 314 309 303 302 304 305 306 306 307 307 307 308 309 309 310 310 310 310 309 309 309 309 309 309 308 308 308 308 307 307 306 306 306 306
331 331 331 330 330 331 331 332 331 331 331 331 330 330 331 331 331 329 327 327 327 327 328 325 324 326 324 321 320 318 319 319 314 311 312 313 314 312 310 311 315 315 310 305 303 304 306 306 307 307 308 308 308 309 309 310 309 309 309 309 309 309 308 308 308 308 307 307 306 306 306 307 308 309
331 331 331 330 329 329 330 331 331 331 331 331 331 330 330 330 330 328 328 327 326 327 327 324 323 325 324 319 319 319 319 319 317 314 312 313 313 312 312 311 312 314 312 309 305 303 304 306 306 307 307 308 308 308 308 309 309 308 308 308 308 308 307 307 307 306 306 305 305 307 309 311 312 314
332 332 332 331 330 329 329 329 330 330 331 331 331 330 330 330 330 328 327 326 326 326 327 325 322 323 322 318 318 319 318 318 318 315 313 314 313 312 312 312 312 312 311 310 307 304 303 304 305 306 306 307 307 307 307 307 307 307 307 307 307 307 306 306 305 305 306 308 310 312 314 314 315 315
332 331 331 331 331 331 330 329 330 330 330 330 329 329 329 329 328 328 327 326 326 326 326 326 322 320 321 319 317 318 318 317 317 315 314 314 313 313 313 312 313 313 312 312 310 307 304 303 303 304 304 305 305 305 306 306 306 306 305 305 305 305 305 305 307 309 311 313 314 314 314 314 314 314
331 331 331 332 331 331 331 331 331 331 329 330 330 329 328 327 327 329 329 327 326 326 326 326 324 320 319 319 317 318 317 316 316 315 314 314 313 313 314 313 313 313 313 314 313 310 307 304 303 303 304 304 305 304 304 305 304 304 304 304 305 307 308 311 313 314 314 314 314 313 312 312 311 311
331 331 332 333 332 331 331 331 331 330 330 330 330 329 328 327 328 329 329 327 326 326 326 326 325 321 319 318 318 318 317 315 316 316 315 315 314 313 314 314 314 313 313 313 313 313 311 309 307 307 307 308 308 307 306 306 305 305 307 309 311 313 314 314 313 313 312 311 311 310 310 309 309 308
332 332 332 333 332 331 331 331 330 331 331 330 330 330 329 328 328 328 328 327 325 325 326 326 325 322 321 321 319 318 317 316 316 317 316 316 315 314 314 314 314 313 313 313 313 313 313 312 311 311 311 311 311 310 310 309 308 310 313 314 314 313 311 311 310 310 309 309 309 308 307 306 305 304
331 331 331 332 332 331 331 331 331 330 330 330 330 329 329 329 329 328 327 326 325 326 326 324 324 324 324 324 321 318 318 318 316 316 317 316 315 315 315 314 315 314 313 313 314 314 314 313 314 314 314 315 315 314 314 313 313 314 314 312 310 309 308 308 308 308 307 307 306 304 303 301 300 300
330 331 331 331 332 331 330 330 330 330 329 329 329 329 329 329 328 328 327 326 326 327 326 325 324 325 324 323 320 319 319 319 318 317 317 317 317 316 314 314 316 316 315 315 315 315 315 315 316 316 316 318 319 318 317 316 316 315 313 309 307 306 306 306 306 306 305 303 301 299 298 298 298 299
329 330 331 331 331 331 330 329 330 330 329 328 327 327 327 327 328 328 327 326 326 326 327 327 327 326 325 324 321 320 320 320 321 320 319 318 318 317 317 318 319 318 317 317 316 315 315 316 317 317 318 320 320 319 318 317 315 313 310 307 306 305 305 305 304 303 301 299 298 298 298 299 299 299
328 329 330 331 331 331 330 329 329 329 328 327 326 327 327 326 326 326 325 325 325 326 327 328 326 325 326 326 325 323 322 321 321 321 321 320 317 319 322 322 321 320 320 320 319 316 316 317 319 319 319 319 317 315 315 313 311 309 308 307 306 305 305 304 302 300 298 298 298 299 300 300 301 301
326 327 328 330 330 329 328 329 329 328 328 327 327 327 326 323 322 323 323 324 325 325 325 325 325 325 325 325 324 323 322 322 322 322 322 321 318 319 322 321 320 320 320 320 320 318 318 319 320 319 317 316 315 312 310 310 309 309 309 306 305 304 304 303 301 299 299 299 300 301 301 301 301 300
325 326 327 327 327 327 327 328 328 328 327 326 326 326 324 320 319 320 321 322 323 324 324 324 324 325 324 323 323 322 321 321 321 321 321 321 320 320 320 319 320 319 317 316 318 319 319 320 319 316 314 313 313 311 309 309 310 309 308 306 305 305 304 303 302 302 302 302 302 302 302 301 301 300
324 324 325 326 326 326 326 327 327 327 327 326 325 325 323 320 317 315 315 317 319 320 321 321 321 320 319 319 320 320 320 319 319 319 319 319 320 320 319 317 319 317 314 313 315 316 317 316 315 313 311 310 309 309 309 310 310 308 307 307 307 306 305 304 304 304 303 303 303 302 302 302 301 301
323 320 322 325 325 325 326 327 327 326 325 325 324 323 322 320 316 313 312 313 314 314 315 314 314 314 313 314 315 315 316 317 318 318 317 317 318 318 318 318 319 317 312 310 310 313 313 312 311 310 308 307 307 308 309 310 309 307 307 308 307 306 306 305 304 304 304 303 302 302 302 301 301 301
315 314 316 319 321 322 324 325 325 326 324 323 323 322 321 319 315 312 312 312 312 312 312 311 311 310 310 310 311 311 312 314 315 315 316 316 316 315 315 317 316 315 311 307 307 309 310 308 307 306 305 305 305 307 309 309 308 307 307 307 307 307 306 305 305 305 304 303 302 302 301 300 300 300
309 310 312 313 313 316 319 321 323 324 323 321 321 322 320 317 314 313 312 311 312 312 311 310 310 309 308 308 308 308 308 309 310 311 312 314 313 311 311 311 310 309 308 307 304 305 306 306 305 305 305 304 304 305 306 307 307 307 307 306 306 306 305 305 305 305 304 303 303 302 301 300 300 300
306 307 309 309 308 309 312 315 316 317 318 318 319 319 317 314 312 312 312 311 312 311 311 310 309 309 308 307 306 305 305 305 305 306 308 309 309 308 307 307 306 306 306 305 302 302 304 306 306 305 305 305 305 305 305 306 306 307 306 305 305 305 304 304 304 304 303 303 303 303 301 301 300 300
300 301 304 305 305 306 308 309 311 312 314 314 314 314 314 312 311 312 312 312 312 312 311 310 309 308 307 306 305 304 304 303 303 303 304 304 305 306 306 306 305 304 303 301 301 302 305 306 306 305 305 306 305 305 305 305 306 306 305 304 304 304 303 303 303 302 302 302 302 302 302 301 301 300
296 297 300 302 303 304 306 307 308 308 309 309 309 310 310 310 311 312 312 312 311 310 310 309 308 307 306 305 304 304 303 303 303 303 303 303 303 304 304 304 304 303 301 301 301 303 305 306 305 304 304 305 305 305 306 306 306 305 304 303 303 303 302 302 302 302 302 301 301 302 302 301 301 299
296 296 298 300 301 302 303 306 307 306 305 305 306 306 307 307 308 309 309 308 307 306 305 304 303 303 303 303 303 302 302 303 302 302 302 302 301 300 300 301 301 301 301 302 302 302 304 305 304 304 304 305 305 305 306 305 304 304 303 302 302 302 301 301 302 301 301 301 301 301 301 300 299 299
296 296 297 298 299 300 300 301 302 302 302 303 303 303 304 304 303 303 303 303 302 302 301 301 300 300 300 300 301 301 302 302 302 302 302 302 302 301 300 300 300 300 301 301 302 302 303 303 303 303 304 305 304 304 304 303 303 303 303 302 301 301 301 301 301 300 300 300 300 300 300 299 298 298
296 296 296 296 297 297 297 297 298 298 299 299 300 300 300 300 300 300 300 299 299 299 298 298 298 298 299 299 299 299 300 300 301 302 302 303 303 303 302 302 301 301 300 299 300 301 301 302 302 302 303 303 303 303 302 302 302 302 302 301 300 300 301 300 300 300 300 299 299 299 299 298 298 297
296 296 296 296 296 297 296 296 296 296 296 296 296 296 296 296 296 297 297 297 297 297 296 296 297 297 297 297 297 298 298 299 299 300 301 302 302 302 302 302 301 301 301 300 300 300 300 301 301 301 301 301 301 301 301 301 301 301 301 300 300 300 300 300 299 299 299 299 299 299 298 298 297 297
297 297 296 296 296 296 296 295 295 295 295 295 295 295 295 295 295 295 295 295 295 295 295 295 296 296 296 296 296 296 297 298 299 300 300 300 301 301 302 302 302 302 302 301 301 300 300 300 300 299 299 299 299 299 300 300 300 300 300 300 299 299 299 299 299 299 298 298 298 298 298 298 297 296
296 296 295 294 294 294 294 293 293 294 294 295 295 295 295 296 296 295 295 295 295 294 294 294 294 295 295 295 296 296 296 297 298 299 299 300 300 300 300 301 301 301 301 301 300 300 300 300 299 299 299 299 298 298 298 299 299 299 299 299 299 299 299 299 298 298 298 298 298 298 298 298 297 296
294 293 293 292 292 292 292 292 292 292 292 293 293 293 294 294 294 294 294 294 294 294 294 293 293 293 294 294 295 295 295 296 297 297 298 298 298 299 299 299 299 300 300 300 299 299 299 299 300 300 300 300 299 297 296 296 297 298 298 298 298 298 298 298 298 298 298 298 298 298 297 297 297 297
293 293 293 292 291 291 291 291 291 291 291 292 292 292 292 292 292 293 292 292 293 293 293 293 293 293 293 293 293 294 294 295 296 296 297 297 297 297 298 298 299 299 299 299 299 299 299 298 299 299 300 300 300 298 296 295 295 296 296 297 297 297 297 297 297 298 297 297 297 297 296 296 297 296
294 293 293 292 292 291 291 291 291 291 291 291 291 292 291 291 292 292 292 292 292 292 292 292 293 293 293 293 293 294 294 295 295 296 296 297 297 297 297 298 298 299 299 298 298 298 298 298 298 298 298 299 299 298 297 296 295 295 295 296 296 296 296 296 297 297 297 297 297 297 296 296 296 296
295 295 294 293 292 292 292 291 291 291 291 291 291 291 291 292 291 291 292 292 292 292 292 292 293 293 293 294 294 294 295 295 295 296 296 297 297 297 297 297 298 298 298 298 298 298 297 297 297 297 297 297 297 297 297 297 296 295 294 295 295 296 296 296 296 296 297 297 297 297 296 296 295 295
296 295 295 294 293 293 293 292 292 292 292 291 291 291 291 291 292 292 292 292 292 292 292 292 293 293 294 294 294 294 295 295 295 296 296 296 296 296 297 297 297 297 297 297 297 297 297 297 297 297 297 297 297 297 296 296 296 296 294 294 294 295 295 296 296 296 296 296 296 296 296 296 295 295
296 295 295 295 294 294 293 293 293 293 292 292 292 292 292 292 292 292 292 292 292 292 292 293 293 293 294 294 294 294 295 295 295 295 295 295 295 295 295 296 296 296 296 296 296 297 297 296 296 296 296 296 296 296 296 296 296 296 295 294 294 294 294 295 296 295 295 296 296 296 296 296 296 296
296 295 295 295 294 294 294 293 293 293 293 292 292 292 292 292 292 292 292 292 292 292 292 293 293 293 294 294 294 294 294 294 294 294 294 294 294 294 294 295 295 295 295 296 296 296 297 296 295 295 296 296 296 296 297 296 296 296 296 295 295 294 293 294 294 294 294 295 295 295 296 296 296 296
296 295 295 295 294 294 294 293 293 293 293 292 292 292 292 292 292 292 292 292 292 292 292 292 293 293 293 293 293 293 293 293 294 294 294 294 294 294 294 294 295 295 296 296 295 296 296 296 296 295 296 296 296 296 296 296 296 296 295 295 295 295 294 294 293 293 293 293 294 295 295 295 295 295
295 295 295 294 294 294 294 293 293 293 293 292 292 291 291 292 292 292 292 292 292 292 292 292 292 293 293 293 293 293 293 293 293 293 293 293 294 294 294 294 294 295 295 295 295 295 295 296 296 296 296 296 296 296 296 296 296 296 296 296 295 295 295 295 294 294 294 293 293 294 294 294 294 295
294 294 294 294 294 294 294 294 293 293 293 292 292 292 292 292 292 292 292 292 292 292 292 292 292 292 293 292 292 292 292 292 292 292 292 292 293 293 293 294 294 294 295 295 295 295 295 295 295 296 296 296 296 296 296 296 296 296 296 295 295 295 295 295 295 295 295 294 294 294 294 294 293 294
294 294 294 294 294 294 293 293 293 293 293 292 292 292 292 292 292 292 292 292 292 292 292 292 292 293 292 292 292 292 292 292 293 293 293 293 293 293 293 294 294 294 294 295 295 295 295 295 295 295 295 295 295 295 295 296 296 295 295 295 295 295 295 295 295 295 295 295 294 294 294 294 294 293
Wind_Speed
16 15 17 19 18 15 15 17 17 16 16 15 13 12 11 10 7 5 6 5 9 15 15 16 20 19 17 16 15 15 15 16 18 17 15 16 17 18 18 16 16 16 16 16 16 16 16 15 14 14 13 14 14 13 13 13 12 10 8 7 5 4 3 2 2 3 3 3 4 5 6 7 8 9
14 15 17 18 16 15 17 19 17 16 17 18 17 15 14 15 12 6 5 6 9 12 15 17 18 17 17 17 16 16 16 16 19 18 15 15 16 17 18 17 17 17 17 16 16 16 16 15 15 14 14 15 15 14 14 13 11 9 7 6 4 3 1 1 1 2 3 4 5 6 7 8 9 10
14 15 16 16 16 16 18 18 18 18 18 18 19 19 16 15 13 9 6 4 8 14 17 17 16 17 18 17 16 17 16 17 19 18 15 15 15 14 16 18 18 18 18 17 17 17 16 16 16 16 16 16 16 15 14 13 11 9 7 6 4 3 2 2 3 4 5 6 7 9 10 11 12 13
16 17 18 16 16 17 16 16 17 18 17 17 19 19 17 15 14 14 10 4 6 14 17 15 14 18 19 17 17 17 16 18 19 16 15 16 15 13 15 18 19 19 19 18 18 17 17 17 17 17 17 17 17 16 14 13 11 10 8 7 5 5 4 4 5 6 7 9 10 11 13 14 15 16
17 18 18 16 18 18 16 15 16 16 17 18 18 17 15 15 17 18 14 8 5 9 14 15 15 18 20 17 17 18 17 19 20 16 15 17 15 13 15 17 19 20 20 20 20 19 18 18 18 18 18 18 18 17 15 14 12 11 9 8 7 7 7 7 8 9 10 11 13 14 15 17 18 20
17 17 15 16 18 18 17 18 17 17 18 18 18 17 16 14 16 19 16 11 8 7 12 17 16 17 20 18 17 18 17 19 20 18 16 16 16 14 15 16 18 20 20 20 21 20 20 20 19 19 19 19 18 17 16 15 14 12 11 10 9 9 9 10 10 12 13 14 16 17 18 20 21 22
17 16 15 16 19 19 19 19 18 18 19 18 18 18 19 17 14 19 20 14 11 10 11 16 17 17 20 18 18 18 17 18 20 19 16 15 16 16 15 15 17 18 20 21 21 21 21 20 20 20 20 20 19 18 18 16 15 14 13 12 12 11 12 12 13 14 16 17 19 20 21 23 24 25
18 17 17 17 19 21 20 20 19 19 18 18 18 18 19 17 14 19 22 17 14 11 9 14 19 18 20 17 17 19 17 17 19 19 17 16 15 16 16 15 15 16 18 20 21 21 21 21 21 21 21 20 20 19 19 17 16 15 15 14 14 14 14 15 16 17 19 20 22 23 24 25 26 27
18 17 17 18 19 19 19 19 19 19 19 19 19 18 17 16 14 18 20 20 20 15 10 16 17 14 18 17 16 19 19 17 18 18 17 17 16 16 16 15 14 13 14 17 19 20 21 21 21 21 21 21 20 20 19 18 18 17 16 16 16 16 17 17 19 20 21 23 24 25 26 26 26 25
18 17 17 18 18 18 19 20 18 19 20 18 18 18 16 14 14 16 18 21 23 17 13 17 18 17 20 18 15 19 19 17 18 17 17 17 16 16 16 15 14 14 14 15 18 21 22 22 22 22 21 21 21 21 20 19 19 18 18 18 18 18 19 20 21 23 24 25 25 24 23 22 21 20
16 17 18 18 18 18 20 20 19 19 20 18 18 17 12 12 12 14 19 23 23 20 17 16 17 19 20 17 15 17 18 17 17 17 17 17 17 17 17 16 15 15 16 17 18 20 22 22 22 21 21 22 22 22 21 20 20 20 19 19 19 20 21 22 23 23 23 22 20 19 18 18 17 18
16 17 18 18 17 17 19 19 18 19 19 18 17 12 8 11 14 14 18 19 19 19 15 11 14 17 15 16 16 16 17 17 17 17 17 16 17 17 17 17 16 15 16 17 17 19 21 22 22 22 22 23 23 22 22 22 21 20 19 19 20 21 21 21 20 18 17 16 16 16 16 16 16 17
18 18 17 16 16 16 17 17 16 16 17 15 13 10 11 14 15 14 16 15 14 13 11 10 15 15 13 15 17 16 17 18 16 16 17 16 16 17 17 18 18 17 16 16 16 18 20 22 23 24 24 24 24 24 23 22 21 19 18 18 18 17 16 15 14 14 14 14 14 14 15 15 16 17
17 17 15 14 15 15 15 17 17 17 16 13 13 13 14 17 19 17 15 16 16 14 12 12 14 15 16 17 17 16 16 17 16 16 16 16 16 17 17 17 19 19 17 16 16 17 19 21 20 20 22 22 22 21 21 20 19 17 14 13 12 11 11 11 12 12 13 13 14 14 15 15 16 17
15 16 15 13 14 15 16 17 18 18 16 14 13 14 16 18 21 19 16 18 19 16 13 13 13 15 15 14 15 17 15 15 16 16 15 16 16 15 16 15 17 20 19 17 16 16 18 19 17 17 18 18 18 18 18 17 16 13 9 8 9 9 10 10 11 11 12 12 13 14 15 16 17 18
15 15 15 13 12 15 17 16 16 18 18 15 13 14 15 15 17 18 18 19 21 18 15 15 16 15 12 9 11 14 14 15 17 17 15 16 16 15 15 14 14 19 21 18 15 14 16 17 15 14 12 9 14 16 13 13 12 8 6 7 8 9 9 10 10 11 12 13 14 15 16 17 18 19
15 14 14 13 12 13 15 15 15 16 18 18 16 15 15 14 15 17 18 20 21 20 17 15 16 14 11 10 12 14 16 17 18 18 17 16 16 16 16 14 12 18 23 20 15 14 15 14 12 12 10 9 12 12 10 8 7 5 7 8 8 8 9 9 10 11 12 13 14 15 16 17 17 18
15 13 12 13 13 13 14 16 16 15 16 17 18 16 15 15 16 16 17 19 20 19 15 13 13 12 10 11 14 18 20 19 16 17 18 17 17 16 13 10 11 18 19 16 15 15 15 13 12 11 9 11 11 8 6 4 5 7 8 8 8 9 9 9 10 11 12 14 14 15 15 16 17 17
16 12 11 11 12 13 14 15 16 16 14 14 15 16 15 14 15 15 16 19 21 18 13 11 13 15 12 9 11 16 19 18 14 13 12 16 19 14 8 10 13 13 10 9 11 13 12 11 11 9 6 12 11 7 3 4 7 7 7 7 7 8 9 9 11 12 12 13 13 13 14 15 16 16
17 12 10 9 11 13 13 13 15 16 14 13 14 17 15 12 13 14 15 18 22 19 13 11 14 16 15 12 11 13 16 16 16 13 8 12 19 17 11 12 12 9 6 6 7 9 8 7 7 5 6 8 7 2 4 6 7 5 4 6 7 8 9 11 12 11 10 10 11 13 15 15 16 16
14 10 9 12 13 13 11 11 14 16 15 13 15 16 14 10 10 13 14 16 18 18 16 15 16 17 17 17 15 14 15 16 17 17 11 8 13 14 13 15 12 9 7 7 6 5 7 8 6 5 4 4 2 3 5 6 5 3 4 6 8 9 10 11 10 9 8 10 12 15 16 16 16 15
9 7 7 9 11 11 11 12 15 18 16 13 12 15 14 10 10 11 13 14 15 15 14 14 15 15 15 15 15 15 15 15 15 16 14 10 13 16 17 17 13 9 7 8 8 5 6 7 5 4 3 3 4 5 7 8 4 2 4 6 8 9 10 10 8 7 9 11 12 13 14 17 18 16
1 1 4 4 5 6 9 13 15 17 17 12 10 13 14 12 12 12 12 13 13 13 12 11 10 10 10 11 12 11 12 13 15 17 18 13 8 9 12 14 14 9 6 8 9 7 6 7 6 6 4 0 1 6 9 7 4 2 1 5 7 7 8 9 7 6 8 9 9 10 14 19 20 16
6 4 3 1 0 2 9 13 13 17 19 13 10 13 14 12 13 14 13 14 14 14 14 13 12 12 12 13 13 13 12 14 15 17 18 15 9 5 5 8 10 8 6 8 10 8 6 6 6 6 4 2 2 4 6 5 5 4 2 2 5 6 7 8 7 5 7 8 8 10 16 20 19 17
7 4 4 3 3 4 9 12 12 17 19 14 11 13 14 14 17 17 16 16 16 15 16 15 14 13 13 12 13 13 13 14 14 14 14 14 12 10 9 9 11 14 12 10 10 9 7 6 5 4 4 3 2 3 5 6 5 3 1 1 3 4 5 6 5 4 6 8 6 11 17 17 16 17
8 5 4 3 3 4 6 9 11 13 13 10 11 14 16 18 20 19 17 17 16 15 15 14 13 12 12 12 12 12 13 13 12 13 14 14 13 13 12 10 12 15 13 10 10 10 8 6 5 4 3 3 4 4 5 6 5 3 2 1 3 4 4 4 4 3 6 6 7 11 15 13 14 18
10 8 8 7 5 5 6 8 9 10 11 13 17 18 19 20 19 17 16 15 14 14 14 13 13 12 11 11 11 11 11 11 11 11 12 12 12 12 12 11 12 13 11 9 9 10 8 6 6 5 3 1 1 4 5 6 5 3 1 2 2 3 3 4 3 4 6 7 9 11 10 9 14 18
14 13 13 13 12 10 10 11 13 17 19 21 23 23 21 18 14 13 14 13 12 13 13 12 12 12 12 12 12 11 11 12 13 13 14 13 12 11 11 13 13 13 12 10 9 10 9 8 6 5 3 2 1 3 3 3 3 2 1 2 2 2 3 4 5 6 8 9 10 10 9 10 13 15
19 17 17 17 18 17 16 15 16 19 20 20 21 21 19 17 14 13 12 12 12 12 12 12 13 13 13 13 13 12 12 12 13 14 15 15 14 13 13 14 13 13 12 11 9 8 8 7 6 5 3 2 1 2 1 2 2 2 2 1 2 3 4 5 7 9 10 10 9 10 11 11 11 11
22 21 21 23 23 22 22 21 22 22 20 19 19 17 17 18 18 18 17 17 16 15 14 14 13 13 12 13 13 13 14 13 12 12 13 14 13 13 14 14 13 12 11 10 9 8 7 7 7 5 2 2 3 1 0 1 3 3 2 2 4 4 5 7 8 8 9 9 8 8 9 9 9 9
23 23 24 27 28 27 26 26 26 25 23 22 22 20 19 20 21 21 21 21 20 18 17 17 16 14 13 14 14 15 15 14 13 12 12 13 12 11 12 13 12 10 10 9 9 9 8 7 6 4 3 2 2 2 2 2 4 3 2 3 5 5 5 6 7 8 8 8 8 7 7 7 8 8
20 22 24 27 29 29 29 28 28 29 28 28 28 26 25 25 24 23 23 24 23 20 19 18 17 15 15 15 16 16 16 16 15 13 11 12 11 10 10 10 10 9 8 8 8 8 7 6 5 5 5 4 4 5 3 3 3 1 3 4 4 4 5 6 5 7 7 7 8 7 6 6 7 7
17 20 24 26 27 27 27 27 27 27 27 27 27 26 25 26 26 25 25 25 23 20 19 19 18 16 15 15 15 16 17 17 16 14 12 10 8 7 7 8 8 8 8 8 7 6 5 5 5 6 7 6 4 4 4 4 4 3 4 5 4 4 4 5 4 5 6 7 8 7 5 5 7 7
18 21 23 24 24 23 23 24 23 22 22 22 21 21 20 21 22 22 23 22 20 18 17 17 17 16 16 15 14 15 16 16 16 15 13 10 9 8 9 9 8 7 7 7 6 5 4 4 5 6 6 6 5 4 4 5 7 6 4 4 4 4 5 5 5 6 6 6 7 6 5 5 6 6
20 20 20 20 20 20 20 20 20 19 20 19 19 18 18 18 18 19 19 18 16 16 15 14 14 14 14 14 14 15 15 14 13 13 12 11 10 10 9 9 8 6 6 5 4 3 3 3 5 7 8 7 6 6 6 7 7 5 3 3 3 4 5 6 6 6 5 5 5 5 5 6 6 5
17 16 16 16 16 17 17 16 16 17 18 17 17 17 17 16 16 16 15 14 14 14 14 13 13 12 12 13 13 13 14 13 12 12 11 10 10 9 8 7 6 5 5 4 3 3 2 1 1 2 5 7 7 5 6 7 7 5 3 2 2 3 4 6 6 5 4 3 4 3 4 5 5 5
13 14 13 13 13 13 14 14 15 15 15 15 15 15 14 14 13 12 12 12 12 13 13 13 12 12 11 12 13 12 12 11 10 10 9 8 8 8 7 6 4 4 4 4 3 3 3 3 3 4 3 3 2 6 7 6 7 8 6 3 2 3 4 4 4 4 3 2 1 2 3 3 4 4
11 11 12 11 10 10 10 11 12 12 12 13 14 13 12 12 11 11 12 12 12 12 12 12 12 11 10 10 10 10 10 9 9 8 7 7 7 6 5 4 3 3 3 4 5 4 3 3 3 3 4 4 3 4 5 4 5 8 8 6 3 2 3 3 3 3 2 1 1 0 1 2 2 2
11 10 10 10 9 8 8 8 9 9 10 11 12 12 11 11 11 11 11 11 11 11 11 11 10 9 9 9 9 9 9 8 8 7 7 6 6 5 5 5 5 4 3 2 2 4 5 5 5 4 4 4 4 4 4 3 3 5 7 8 7 4 2 2 3 3 2 2 2 1 2 1 0 3
10 10 9 9 8 8 8 8 8 8 9 10 11 11 11 11 10 10 9 9 10 10 9 9 8 8 8 8 8 9 9 8 8 8 7 6 6 5 5 4 4 5 5 4 3 3 6 8 6 3 3 4 3 3 3 2 3 4 2 5 8 7 3 1 1 3 3 5 6 1 3 2 2 0
10 9 9 8 8 7 8 8 8 8 9 9 9 9 9 9 9 9 9 8 8 9 8 8 8 8 7 7 7 7 7 7 7 7 7 7 7 5 3 2 3 4 4 5 5 4 5 6 5 4 5 4 1 2 2 2 3 5 5 3 4 7 6 4 3 3 5 7 8 4 2 2 1 2
9 9 7 7 7 7 7 8 8 8 8 8 8 8 8 8 9 9 9 8 8 8 8 7 7 7 6 7 7 7 7 7 6 6 5 6 6 4 3 3 3 3 4 6 6 4 4 4 4 3 4 3 2 2 2 2 3 4 4 4 3 3 4 5 5 5 5 7 8 6 5 5 4 2
9 7 6 6 6 7 7 7 7 7 8 8 8 8 8 8 8 7 7 7 7 7 6 6 6 6 7 7 6 6 7 7 6 6 5 4 4 4 5 4 3 2 4 7 6 5 4 4 3 2 2 1 0 1 3 3 2 2 3 3 2 0 2 2 4 5 4 5 6 6 4 4 4 4
8 6 5 5 5 6 6 6 6 7 7 7 7 6 6 6 6 6 6 6 6 7 7 7 6 6 6 6 6 6 6 6 5 5 4 4 4 4 3 3 2 3 4 6 6 5 5 4 3 3 3 3 3 3 3 2 2 3 3 3 1 1 2 2 2 2 2 3 6 6 4 3 4 3
8 6 6 6 5 6 6 6 6 6 6 6 6 5 5 6 6 6 6 6 6 6 6 6 5 5 5 6 6 5 5 4 4 4 4 4 4 3 1 1 4 5 4 3 3 5 5 4 3 4 4 3 3 3 3 3 3 3 3 2 1 2 2 1 1 1 2 0 4 7 5 4 5 4
Wind_Direction
208 206 211 220 220 218 221 224 225 223 218 212 208 206 200 198 207 205 191 195 218 218 207 195 199 197 186 181 184 182 180 190 187 171 172 188 185 181 182 181 180 180 179 179 180 179 177 174 175 178 179 177 175 175 172 169 168 165 162 160 156 144 127 98 71 40 26 11 356 353 351 348 348 347
209 205 211 217 217 219 223 226 229 225 219 217 214 215 211 205 205 194 180 201 208 209 212 207 196 186 179 182 186 183 184 191 184 173 176 189 191 188 184 184 182 182 184 184 183 184 181 177 178 181 183 182 180 180 178 176 174 171 170 172 174 168 151 57 12 354 343 338 334 333 333 332 331 330
208 206 210 211 212 221 225 224 223 217 216 220 220 218 212 206 205 191 167 193 211 210 215 211 191 177 178 183 185 183 184 188 184 178 182 187 190 189 187 188 186 184 186 187 187 188 185 182 182 184 187 187 185 185 185 185 183 183 185 188 194 209 233 277 306 314 315 317 319 319 320 319 318 317
209 207 210 210 212 216 218 218 217 212 214 222 224 219 211 204 200 199 193 181 209 212 208 206 193 180 179 182 186 184 178 184 187 183 185 190 190 190 193 193 190 189 191 191 191 191 188 187 188 190 192 192 191 191 192 193 195 196 199 205 214 231 252 271 288 298 303 307 309 310 310 310 310 310
213 211 210 208 210 211 208 210 216 216 216 221 224 221 215 203 187 190 200 190 201 218 208 210 203 182 179 184 187 184 173 176 185 182 181 189 188 187 194 196 195 194 194 194 194 194 192 193 195 196 196 198 197 198 200 203 206 210 213 222 231 242 258 272 283 290 296 298 300 302 304 305 306 306
214 213 212 209 211 211 206 207 213 217 218 218 219 217 216 208 180 178 191 189 189 206 204 214 210 181 182 189 186 184 175 172 183 184 180 185 186 184 188 197 202 200 199 200 199 197 197 198 201 202 202 204 204 205 208 210 214 220 226 234 243 253 263 272 280 286 290 293 296 298 300 301 301 301
217 211 209 208 210 210 207 207 212 217 218 218 220 218 216 214 192 184 193 188 187 195 193 211 214 189 186 194 187 186 181 174 183 188 184 185 187 186 186 193 204 206 204 205 203 203 204 204 205 207 207 209 210 212 215 218 221 227 235 242 250 258 265 272 278 284 288 292 295 296 297 297 297 297
220 214 211 209 210 211 207 206 211 214 216 217 220 220 216 211 194 188 194 191 191 194 187 214 219 191 182 198 193 184 182 179 185 192 191 188 189 189 190 193 201 208 209 210 210 209 209 211 211 212 212 213 215 217 220 224 228 234 241 248 255 261 267 273 279 284 288 290 292 293 294 294 294 294
220 216 216 213 211 211 208 209 211 210 215 219 220 220 217 211 196 186 190 196 199 195 191 220 225 185 177 201 197 183 184 182 184 192 193 191 191 191 192 195 199 204 206 210 215 215 215 218 217 217 219 219 220 223 225 229 233 239 244 251 257 263 270 276 280 284 286 288 290 291 292 293 293 294
222 219 218 217 212 207 207 213 216 212 214 219 222 223 218 207 191 176 179 192 199 200 198 208 212 190 184 198 198 187 188 185 184 191 191 192 194 191 191 195 196 199 204 209 214 217 219 221 222 223 225 226 226 228 230 232 236 242 247 253 260 266 272 277 280 283 285 287 289 290 291 293 295 297
222 220 218 217 214 209 209 214 217 217 217 219 225 229 220 210 200 175 175 185 191 199 204 200 204 200 187 187 198 196 189 187 189 189 189 193 194 191 192 193 191 195 208 217 221 222 222 223 226 228 228 230 232 232 234 237 240 245 250 257 264 269 274 277 279 282 284 285 287 289 291 293 295 297
219 221 221 219 217 214 212 212 212 216 219 219 224 219 184 200 212 188 178 186 189 194 199 199 208 206 184 178 195 198 189 190 194 191 192 195 194 191 192 195 194 191 196 206 215 221 224 225 228 232 234 235 237 237 239 241 243 249 256 263 268 271 273 275 277 279 282 284 287 289 291 294 296 298
218 222 224 221 220 217 213 211 209 212 217 214 209 190 163 181 197 183 177 188 191 189 193 207 211 201 187 189 195 195 191 192 195 193 192 196 198 196 195 198 202 199 193 196 202 210 218 221 225 230 234 236 237 238 240 243 247 253 257 261 264 265 267 270 273 277 280 283 287 290 294 296 298 300
219 220 220 217 220 217 213 214 212 213 219 214 207 202 193 193 190 179 176 184 189 193 198 210 210 195 190 195 195 196 195 192 196 197 192 196 201 199 200 202 204 207 206 201 203 209 212 214 216 221 228 236 237 236 236 238 242 245 245 249 255 258 263 268 272 277 281 285 290 293 295 298 299 301
218 217 216 214 218 219 217 217 215 214 217 217 212 204 196 195 190 180 179 183 188 197 198 198 204 200 198 198 193 195 196 191 198 203 196 199 204 204 206 205 200 202 206 206 210 211 204 201 206 213 221 223 217 216 221 220 222 228 231 244 258 262 267 272 275 281 284 287 291 293 295 298 299 301
221 218 216 210 214 220 217 215 215 216 216 213 209 201 194 199 199 193 195 193 191 198 201 197 200 202 203 201 187 189 198 199 202 209 206 204 209 210 210 214 205 195 196 203 212 214 203 196 203 217 217 184 169 181 195 197 200 215 240 260 268 266 268 273 276 281 284 288 293 296 299 302 303 306
226 219 215 209 212 218 214 209 209 212 215 213 208 202 199 202 202 199 200 197 194 200 208 207 208 209 209 209 196 191 206 211 204 207 213 210 211 215 217 224 208 180 183 195 201 211 213 197 196 223 221 163 152 168 177 182 205 246 274 279 275 269 269 273 277 283 291 297 302 305 308 310 312 313
242 223 214 211 215 215 208 206 205 200 204 210 207 201 200 201 200 198 198 199 200 204 209 208 210 209 205 211 212 207 214 220 210 205 213 212 214 219 216 205 171 161 176 192 193 205 216 199 197 227 213 157 148 164 175 206 267 284 285 281 275 272 273 280 289 298 305 309 312 316 318 319 321 321
264 243 227 219 218 218 209 202 202 198 190 191 195 196 195 194 194 196 199 203 203 204 207 209 207 202 189 186 204 208 213 220 215 208 217 222 218 211 182 153 144 147 167 186 192 209 214 198 202 217 167 128 133 154 188 273 282 275 274 279 282 285 293 304 311 315 317 318 321 326 328 330 332 329
275 262 246 235 232 231 220 202 200 199 185 178 189 191 179 165 172 187 198 202 204 206 211 217 213 207 198 191 196 205 207 206 199 189 198 227 221 207 187 175 156 133 138 157 184 210 197 168 176 170 111 106 127 178 280 272 259 263 291 310 313 315 320 327 329 325 324 330 337 340 339 338 335 334
281 267 242 230 230 234 229 211 204 200 189 187 191 182 165 149 163 189 199 199 203 210 215 221 222 218 213 211 215 216 209 201 195 186 180 220 224 204 202 204 182 140 130 143 148 177 167 148 143 131 110 123 162 278 272 226 222 294 335 332 333 336 338 342 345 343 345 352 353 350 348 344 341 346
264 251 241 227 223 227 227 219 209 201 197 198 189 173 167 166 164 179 195 192 192 201 206 211 218 217 214 217 223 225 220 217 216 202 190 212 234 222 216 207 175 127 111 140 143 141 146 145 134 114 122 184 212 225 212 191 177 8 356 347 344 341 341 346 352 354 355 356 353 350 350 348 349 356
230 296 272 241 228 230 217 209 204 201 200 200 184 172 176 176 160 160 178 179 170 173 173 169 174 176 176 183 189 195 203 206 207 199 186 184 206 223 215 192 162 127 105 140 143 129 126 129 114 105 115 195 199 169 169 166 154 138 348 334 328 324 334 342 339 340 349 350 346 346 350 351 352 357
66 25 324 286 118 168 186 191 195 198 198 193 178 178 180 171 154 148 151 153 148 144 140 134 132 135 139 144 144 142 147 156 168 180 183 176 156 116 120 145 139 122 121 142 138 119 106 107 98 102 117 99 86 141 165 184 188 182 199 285 297 306 330 339 325 320 339 338 335 345 349 348 350 356
48 19 6 29 72 132 172 186 191 195 198 196 187 188 182 161 147 141 137 138 136 131 128 126 122 121 122 118 117 121 121 121 130 142 154 163 159 135 123 121 109 107 119 141 144 127 107 107 107 104 124 159 204 217 220 217 205 191 202 250 296 304 320 330 319 314 332 328 328 345 344 342 349 357
26 35 49 50 66 109 153 171 179 190 197 185 167 170 166 151 142 137 133 134 134 130 129 128 123 119 115 107 102 107 109 107 110 113 116 127 133 128 129 130 118 117 127 144 153 141 119 119 136 127 125 182 214 226 234 230 211 190 200 272 313 310 310 323 326 335 338 323 317 331 332 337 357 2
37 64 90 93 89 99 116 126 133 142 141 129 128 138 146 144 138 134 134 137 139 138 134 130 125 119 116 110 101 96 95 95 95 97 101 109 115 114 116 115 110 113 117 123 139 137 113 109 141 141 111 104 224 227 228 230 216 193 205 296 316 325 320 317 322 339 345 335 327 333 339 351 2 2
54 67 89 101 104 105 107 109 110 111 112 114 118 124 131 134 131 135 141 142 138 133 127 122 116 108 105 104 99 96 98 96 95 97 95 94 101 110 117 117 113 111 107 105 121 128 111 100 115 126 114 106 259 251 232 225 229 223 254 297 320 341 322 316 335 352 355 346 335 343 1 3 358 357
65 67 82 98 105 104 106 113 113 106 103 107 113 117 121 120 114 115 119 118 111 105 98 95 93 88 88 92 95 99 102 99 97 100 99 97 102 108 111 112 110 105 98 91 93 105 106 98 98 105 116 145 226 265 261 260 264 245 234 298 337 332 324 346 9 8 2 352 340 346 359 358 351 349
68 69 73 83 91 93 93 95 99 99 101 106 107 105 105 104 101 98 95 91 89 87 84 82 80 79 83 89 91 93 95 94 94 98 101 102 104 104 101 99 96 93 92 91 89 91 93 93 94 94 98 167 196 196 62 286 273 260 253 5 3 339 339 9 20 13 0 348 340 350 3 360 351 347
62 65 70 76 81 84 82 81 84 87 90 92 92 90 89 89 92 96 95 91 85 83 85 85 83 85 90 92 92 90 89 89 90 96 104 106 105 106 104 99 95 92 90 93 96 96 92 89 87 77 67 102 138 89 55 281 274 283 328 22 10 344 352 13 13 8 2 342 330 342 358 357 353 354
55 61 67 71 74 76 75 72 73 75 76 78 79 80 81 84 88 94 97 93 85 81 85 87 84 84 86 88 92 94 90 85 82 84 91 96 99 108 111 109 112 113 107 100 95 93 95 97 95 85 74 64 50 40 11 283 270 329 16 5 346 346 16 27 5 356 358 339 325 336 354 1 0 357
44 50 54 58 60 64 65 65 65 68 70 71 72 74 76 78 81 84 85 83 79 78 81 83 80 78 78 78 82 87 86 84 82 79 78 81 91 107 114 114 118 120 118 115 103 95 102 114 111 101 90 83 74 51 20 346 352 29 25 3 344 341 8 16 350 340 345 337 330 335 354 15 15 1
48 48 48 50 52 57 61 61 62 66 70 72 72 74 77 78 79 81 80 79 78 78 79 79 78 79 78 77 78 80 78 78 79 76 73 73 79 85 88 90 91 92 101 110 108 105 121 149 159 143 114 105 114 104 67 34 24 25 21 8 350 331 336 345 334 327 332 337 337 333 335 359 18 13
50 46 44 46 49 55 60 62 63 67 72 75 76 78 80 83 87 89 88 87 88 88 87 86 86 86 85 85 87 85 81 77 74 72 74 75 77 79 81 84 86 90 98 105 110 119 135 162 172 165 155 145 135 105 76 63 50 32 4 345 338 330 334 331 321 320 332 345 349 344 340 358 21 24
43 41 40 41 43 48 55 59 64 68 70 73 77 78 79 82 86 88 89 94 100 101 98 94 92 92 91 89 87 84 81 79 75 74 75 77 76 79 81 85 95 107 108 104 107 118 111 63 49 181 189 182 162 123 85 71 69 64 42 2 342 331 332 322 313 324 350 0 2 8 4 7 16 14
40 40 40 41 42 45 51 57 63 66 69 71 73 73 74 75 79 82 88 96 100 99 99 95 89 86 84 83 82 80 78 80 81 79 79 81 83 86 86 90 105 118 121 119 108 87 76 64 40 9 325 275 173 131 121 99 73 66 63 56 16 339 339 326 318 339 13 21 8 29 38 29 21 16
39 40 40 44 46 46 49 54 56 59 66 70 72 72 72 72 74 79 86 90 89 89 92 90 84 80 81 83 86 86 86 86 86 84 85 90 93 94 94 98 105 112 120 129 125 109 84 60 49 36 6 341 3 82 109 109 71 51 43 44 43 355 348 354 339 340 357 336 276 221 87 63 71 71
39 40 41 46 50 49 49 52 52 53 60 66 68 70 72 72 75 78 80 81 82 83 85 84 80 78 81 83 84 87 90 92 92 89 89 93 95 98 100 97 93 89 78 63 96 114 88 56 41 40 41 29 24 39 50 69 88 63 39 38 41 28 14 24 353 332 328 326 308 205 190 230 67 88
37 39 42 45 51 56 58 60 61 62 65 67 70 73 76 77 77 77 76 78 83 84 84 83 82 82 84 87 91 93 93 94 95 95 92 90 91 95 102 103 98 99 90 58 35 60 67 53 39 41 75 78 76 65 54 80 147 152 106 48 40 41 61 100 341 337 346 342 336 333 171 213 258 210
34 38 42 46 53 61 67 71 72 74 77 80 81 81 82 83 84 83 83 86 90 90 88 86 84 82 84 89 94 98 99 99 100 101 101 99 97 89 82 99 110 110 102 79 59 60 67 56 53 92 126 132 182 227 204 188 167 152 151 136 61 49 65 89 68 33 22 4 355 7 68 63 285 241
27 34 41 49 59 70 79 83 85 86 85 85 85 85 88 94 97 95 91 91 97 98 97 96 92 87 86 88 88 90 92 89 86 89 94 102 106 93 69 79 96 100 95 89 79 78 85 71 59 94 142 181 248 237 158 130 93 88 120 153 141 63 56 64 57 42 32 27 25 24 22 14 2 341
21 31 46 57 66 79 88 90 91 90 87 87 91 94 96 100 103 100 96 97 98 95 91 90 87 80 79 82 83 85 86 85 82 79 74 73 80 82 83 84 65 43 89 102 99 90 92 87 73 91 148 174 185 91 85 79 68 65 83 114 135 323 330 4 31 29 24 25 27 28 27 19 6 356
17 30 57 72 80 87 90 91 91 92 92 94 98 100 99 99 98 96 92 90 88 87 85 86 84 81 80 82 83 83 86 90 92 93 90 84 79 84 103 114 77 50 78 107 110 100 94 94 94 98 102 99 94 90 79 64 62 60 58 64 50 322 299 277 290 336 355 0 5 8 13 20 16 3
20 37 62 76 82 85 86 88 90 93 97 98 98 97 95 93 94 91 87 84 86 87 84 79 74 74 77 81 84 85 87 88 88 87 91 98 95 86 66 91 92 80 68 71 99 110 110 111 112 107 103 95 87 91 89 64 47 55 67 61 16 355 351 277 237 154 161 251 2 13 14 5 5 14